KB1LTW-13 Weather Reports


time (UTC)temp
C
wind
direction
speed
KPH
gust
KPH
rain 1hr
cm
rain 24hr
cm
rain mn
cm
humidity
%
barometer
mb
20260504160128 17 34 8.0 16.1 0.00 0.00 0.00 30 1012.7
20260504151123 17 96 1.6 6.4 0.00 0.00 0.00 34 1013.1
20260504150129 16 99 0.0 3.2 0.00 0.00 0.00 35 1013.2
20260504141124 15 138 4.8 9.7 0.00 0.00 0.00 36 1013.7
20260504140130 15 64 1.6 9.7 0.00 0.00 0.00 36 1013.7
20260504130132 13 82 1.6 6.4 0.00 0.00 0.00 42 1014.1
20260504120117 10 89 3.2 4.8 0.00 0.00 0.00 50 1014.4
20260504110123 7 104 0.0 1.6 0.00 0.00 0.00 58 1014.7
20260504100126 6 99 0.0 1.6 0.00 0.00 0.00 62 1013.9
20260504090126 6 0.0 0.0 0.00 0.00 0.00 62 1013.6
20260504081124 6 107 0.0 1.6 0.00 0.00 0.00 63 1013.5
20260504080120 5 0.0 0.0 0.00 0.00 0.00 66 1013.6
20260504070120 5 0.0 0.0 0.00 0.00 0.00 64 1013.6
20260504060123 6 0.0 0.0 0.00 0.00 0.00 63 1013.5
20260504050144 5 0.0 0.0 0.00 0.00 0.00 60 1013.6
20260504045130 5 0.0 0.0 0.00 0.00 0.00 63 1013.9
20260504044120 5 0.0 0.0 0.00 0.00 0.00 57 1013.9
20260504043117 5 0.0 0.0 0.00 0.00 0.00 59 1013.9
20260504042123 4 0.0 0.0 0.00 0.00 0.00 58 1013.8
20260504041122 4 0.0 0.0 0.00 0.00 0.00 63 1013.7
20260504040144 4 0.0 0.0 0.00 0.00 0.00 61 1013.6
20260504035131 5 0.0 0.0 0.00 0.00 0.00 62 1013.7
20260504034121 5 0.0 0.0 0.00 0.00 0.00 57 1013.7
20260504033120 5 0.0 0.0 0.00 0.00 0.00 51 1013.7
20260504032126 5 0.0 0.0 0.00 0.00 0.00 51 1013.5
20260504031124 5 0.0 0.0 0.00 0.00 0.00 49 1013.5
20260504030146 5 0.0 0.0 0.00 0.00 0.00 50 1013.5
20260504025132 5 0.0 0.0 0.00 0.00 0.00 50 1013.5
20260504024122 5 0.0 0.0 0.00 0.00 0.00 55 1013.7
20260504023123 5 0.0 0.0 0.00 0.00 0.00 51 1013.4
20260504022123 5 0.0 0.0 0.00 0.00 0.00 53 1013.6
20260504021117 5 0.0 0.0 0.00 0.00 0.00 54 1013.4
20260504020126 5 0.0 0.0 0.00 0.00 0.00 51 1013.5
20260504015116 6 0.0 0.0 0.00 0.00 0.00 52 1013.4
20260504014123 6 0.0 0.0 0.00 0.00 0.00 50 1013.4
20260504013126 6 0.0 0.0 0.00 0.00 0.00 51 1013.1
20260504012125 6 0.0 0.0 0.00 0.00 0.00 52 1013.0
20260504011120 7 0.0 0.0 0.00 0.00 0.00 52 1013.1
20260504010116 7 0.0 0.0 0.00 0.00 0.00 47 1012.8
20260504005117 7 0.0 0.0 0.00 0.00 0.00 46 1012.5
20260504004124 7 0.0 0.0 0.00 0.00 0.00 48 1012.6
20260504003123 7 0.0 0.0 0.00 0.00 0.00 46 1012.4
20260504002125 7 0.0 0.0 0.00 0.00 0.00 42 1012.3
20260504001115 8 0.0 0.0 0.00 0.00 0.00 41 1012.1
20260504000117 8 0.0 0.0 0.00 0.00 0.00 39 1011.7
20260503235118 9 0.0 0.0 0.00 0.00 0.00 39 1011.7
20260503234145 10 105 0.0 1.6 0.00 0.00 0.00 36 1011.5
20260503233124 10 104 0.0 4.8 0.00 0.00 0.00 34 1011.6
20260503232115 10 0.0 3.2 0.00 0.00 0.00 35 1011.4
20260503231116 10 114 1.6 3.2 0.00 0.00 0.00 33 1011.5
20260503230118 10 0.0 3.2 0.00 0.00 0.00 36 1011.4
20260503225119 11 109 1.6 3.2 0.00 0.00 0.00 33 1011.4
20260503224127 11 102 0.0 4.8 0.00 0.00 0.00 34 1011.4
20260503223122 11 120 4.8 12.9 0.00 0.00 0.00 34 1011.4
20260503222117 11 124 1.6 4.8 0.00 0.00 0.00 35 1011.4
20260503221117 11 100 1.6 4.8 0.00 0.00 0.00 34 1011.4
20260503220119 11 104 4.8 11.3 0.00 0.00 0.00 33 1011.2
20260503215120 11 100 4.8 11.3 0.00 0.00 0.00 33 1011.4
20260503214122 11 116 3.2 6.4 0.00 0.00 0.00 34 1011.3
20260503213118 11 101 1.6 9.7 0.00 0.00 0.00 34 1011.1
20260503212118 11 108 0.0 11.3 0.00 0.00 0.00 35 1011.1
20260503211118 11 91 3.2 17.7 0.00 0.00 0.00 35 1011.2
20260503210120 11 100 3.2 9.7 0.00 0.00 0.00 36 1011.2
20260503205121 11 93 4.8 12.9 0.00 0.00 0.00 34 1011.3
20260503204117 11 99 3.2 12.9 0.00 0.00 0.00 35 1011.4
20260503203123 10 114 3.2 14.5 0.00 0.00 0.00 36 1011.1
20260503202139 10 103 4.8 9.7 0.00 0.00 0.00 37 1011.4
20260503201120 9 88 3.2 17.7 0.00 0.00 0.00 36 1011.2
20260503200121 10 139 6.4 11.3 0.00 0.00 0.00 37 1011.3
20260503195123 10 138 8.0 16.1 0.00 0.00 0.00 37 1011.2
20260503194118 10 111 3.2 6.4 0.00 0.00 0.00 39 1011.3
20260503193124 10 104 6.4 11.3 0.00 0.00 0.00 34 1011.1
20260503192120 9 97 3.2 12.9 0.00 0.00 0.00 37 1011.4
20260503191120 10 103 8.0 24.1 0.00 0.00 0.00 35 1011.2
20260503190122 11 107 9.7 24.1 0.00 0.00 0.00 33 1011.2
20260503185124 11 117 4.8 14.5 0.00 0.00 0.00 34 1011.0
20260503184139 10 102 4.8 16.1 0.00 0.00 0.00 35 1011.4
20260503183125 10 115 3.2 14.5 0.00 0.00 0.00 37 1011.3
20260503182120 10 113 3.2 12.9 0.00 0.00 0.00 35 1011.2
20260503181121 10 113 4.8 9.7 0.00 0.00 0.00 37 1011.4
20260503180124 10 131 4.8 12.9 0.00 0.00 0.00 36 1011.0
20260503175125 10 126 6.4 16.1 0.00 0.00 0.00 35 1011.1
20260503174119 10 103 4.8 9.7 0.00 0.00 0.00 35 1011.1
20260503173121 9 175 6.4 9.7 0.00 0.00 0.00 38 1011.2
20260503172202 9 122 3.2 16.1 0.00 0.00 0.00 36 1011.3
20260503171122 9 124 4.8 9.7 0.00 0.00 0.00 40 1011.1
20260503170125 9 118 3.2 27.4 0.00 0.00 0.00 41 1011.4